Torna al catalogo

FENGYUN 1C DEB

AttivoSSO
NORAD 30348·DEBRIS·🇨🇳 China

Lanciato May 10, 1999 da Taiyuan Satellite Launch Center

Loading…

Prossimi Passaggi (prossime 24 ore)

TLE

AggiornatoSource: Space-Track

Epoca: Sep 14, 2026, 06:26 UTC

1 30348U 99025ABK 26257.26866712  .00002845  00000-0  96147-3 0  9992
2 30348  98.8660   4.9521 0017819 277.7733 111.7397 14.37623066 14866

Traccia FENGYUN 1C DEB in tempo reale con AllMySat

Download on the App Store